TimeCDT,TemperatureF,Dew PointF,Humidity,Sea Level PressureIn,VisibilityMPH,Wind Direction,Wind SpeedMPH,Gust SpeedMPH,PrecipitationIn,Events,Conditions,WindDirDegrees,DateUTC
12:52 AM,71.1,62.1,73,29.91,10.0,SSW,8.1,-,N/A,,Mostly Cloudy,200,2013-08-02 05:52:00
1:52 AM,72.0,62.1,71,29.89,10.0,SSW,6.9,-,N/A,,Mostly Cloudy,200,2013-08-02 06:52:00
2:52 AM,71.1,62.1,73,29.88,10.0,SW,6.9,-,N/A,,Overcast,220,2013-08-02 07:52:00
3:52 AM,70.0,62.1,76,29.88,10.0,SW,6.9,-,N/A,,Mostly Cloudy,220,2013-08-02 08:52:00
4:52 AM,70.0,62.1,76,29.88,10.0,SW,11.5,-,N/A,,Partly Cloudy,220,2013-08-02 09:52:00
5:52 AM,71.1,63.0,75,29.88,10.0,WSW,8.1,-,N/A,,Scattered Clouds,240,2013-08-02 10:52:00
6:52 AM,71.1,63.0,75,29.88,10.0,WSW,9.2,-,N/A,,Scattered Clouds,240,2013-08-02 11:52:00
7:52 AM,71.1,64.0,78,29.90,10.0,West,10.4,-,N/A,,Clear,260,2013-08-02 12:52:00
8:52 AM,73.9,66.0,76,29.89,10.0,West,9.2,-,N/A,,Clear,260,2013-08-02 13:52:00
9:52 AM,77.0,66.9,71,29.89,10.0,WNW,9.2,-,N/A,,Clear,290,2013-08-02 14:52:00
10:52 AM,80.1,68.0,67,29.88,10.0,West,8.1,-,N/A,,Clear,270,2013-08-02 15:52:00
11:52 AM,82.0,66.0,58,29.89,10.0,West,8.1,-,N/A,,Clear,260,2013-08-02 16:52:00
12:52 PM,82.0,66.9,60,29.90,10.0,West,9.2,-,N/A,,Mostly Cloudy,280,2013-08-02 17:52:00
1:52 PM,81.0,66.0,60,29.90,10.0,West,6.9,-,N/A,,Mostly Cloudy,280,2013-08-02 18:52:00
2:52 PM,82.9,66.9,58,29.89,10.0,WNW,8.1,-,N/A,,Scattered Clouds,290,2013-08-02 19:52:00
3:52 PM,81.0,66.0,60,29.87,10.0,WNW,4.6,-,N/A,,Scattered Clouds,290,2013-08-02 20:52:00
4:52 PM,81.0,66.0,60,29.87,10.0,WNW,5.8,-,N/A,,Mostly Cloudy,300,2013-08-02 21:52:00
5:52 PM,82.0,68.0,62,29.88,10.0,WNW,5.8,-,N/A,,Partly Cloudy,300,2013-08-02 22:52:00
6:52 PM,77.0,64.9,66,29.90,10.0,NNW,4.6,-,N/A,,Mostly Cloudy,330,2013-08-02 23:52:00
7:52 PM,73.0,60.1,64,29.94,10.0,NNW,10.4,-,0.00,Rain,Light Rain,340,2013-08-03 00:52:00
8:52 PM,68.0,62.1,81,29.95,10.0,North,8.1,-,0.01,Rain,Light Rain,10,2013-08-03 01:52:00
9:52 PM,66.9,62.1,84,29.95,10.0,NNE,3.5,-,0.01,,Scattered Clouds,20,2013-08-03 02:52:00
10:52 PM,66.9,62.1,84,29.96,10.0,Calm,Calm,-,N/A,,Overcast,0,2013-08-03 03:52:00
11:52 PM,66.0,62.1,87,29.98,10.0,NW,4.6,-,N/A,,Overcast,320,2013-08-03 04:52:00